Time,TemperatureF,DewpointF,PressureIn,WindDirection,WindDirectionDegrees,WindSpeedMPH,WindSpeedGustMPH,Humidity,HourlyPrecipIn,Conditions,Clouds,dailyrainin,SolarRadiationWatts/m^2,SoftwareType,DateUTC
2013-09-29 00:12:00,54.0,45.0,-100.00,SE,140,3.0,8.0,71,0.00,,,0.29,0.000000,,2013-09-29 06:12:00,
2013-09-29 00:22:00,54.0,45.0,-100.00,SE,140,3.0,8.0,71,0.00,,,0.29,0.000000,,2013-09-29 06:22:00,
2013-09-29 00:32:00,54.0,45.0,-100.00,SE,140,3.0,8.0,71,0.00,,,0.29,0.000000,,2013-09-29 06:32:00,
2013-09-29 00:42:00,53.0,46.0,-100.00,ESE,108,5.0,13.0,77,0.00,,,0.23,0.000000,,2013-09-29 06:42:00,
2013-09-29 01:11:00,53.0,46.0,-100.00,ESE,108,5.0,13.0,77,0.00,,,0.23,0.000000,,2013-09-29 07:11:00,
2013-09-29 01:22:00,53.0,46.0,-100.00,ESE,108,5.0,13.0,77,0.00,,,0.23,0.000000,,2013-09-29 07:22:00,
2013-09-29 01:32:00,53.0,46.0,-100.00,ESE,108,5.0,13.0,77,0.00,,,0.23,0.000000,,2013-09-29 07:32:00,
2013-09-29 01:42:00,55.0,43.0,-100.00,SE,127,4.0,11.0,64,0.00,,,0.20,0.000000,,2013-09-29 07:42:00,
2013-09-29 02:12:00,55.0,43.0,-100.00,SE,127,4.0,11.0,64,0.00,,,0.20,0.000000,,2013-09-29 08:12:00,
2013-09-29 02:22:00,55.0,43.0,-100.00,SE,127,4.0,11.0,64,0.00,,,0.20,0.000000,,2013-09-29 08:22:00,
2013-09-29 02:32:00,55.0,43.0,-100.00,SE,127,4.0,11.0,64,0.00,,,0.20,0.000000,,2013-09-29 08:32:00,
2013-09-29 02:42:00,55.0,44.0,-100.00,West,259,3.0,10.0,66,0.01,,,0.21,0.000000,,2013-09-29 08:42:00,
2013-09-29 03:11:00,55.0,44.0,-100.00,West,259,3.0,10.0,66,0.01,,,0.21,0.000000,,2013-09-29 09:11:00,
2013-09-29 03:22:00,55.0,44.0,-100.00,West,259,3.0,10.0,66,0.01,,,0.21,0.000000,,2013-09-29 09:22:00,
2013-09-29 03:33:00,55.0,44.0,-100.00,West,259,3.0,10.0,66,0.01,,,0.21,0.000000,,2013-09-29 09:33:00,
2013-09-29 03:42:00,54.0,45.0,-100.00,SE,129,5.0,9.0,71,0.03,,,0.21,0.000000,,2013-09-29 09:42:00,
2013-09-29 04:12:00,54.0,45.0,-100.00,SE,129,5.0,9.0,71,0.03,,,0.21,0.000000,,2013-09-29 10:12:00,
2013-09-29 04:23:00,54.0,45.0,-100.00,SE,129,5.0,9.0,71,0.03,,,0.21,0.000000,,2013-09-29 10:23:00,
2013-09-29 04:32:00,54.0,45.0,-100.00,SE,129,5.0,9.0,71,0.03,,,0.21,0.000000,,2013-09-29 10:32:00,
2013-09-29 04:42:00,54.0,43.0,-100.00,South,187,9.0,18.0,66,0.00,,,0.21,0.000000,,2013-09-29 10:42:00,
2013-09-29 05:12:00,54.0,43.0,-100.00,South,187,9.0,18.0,66,0.00,,,0.21,0.000000,,2013-09-29 11:12:00,
2013-09-29 05:22:00,54.0,43.0,-100.00,South,187,9.0,18.0,66,0.00,,,0.21,0.000000,,2013-09-29 11:22:00,
2013-09-29 05:33:00,54.0,43.0,-100.00,South,187,9.0,18.0,66,0.00,,,0.21,0.000000,,2013-09-29 11:33:00,
2013-09-29 05:42:00,56.0,41.0,-100.00,SSW,198,9.0,19.0,58,0.00,,,0.18,0.000000,,2013-09-29 11:42:00,
2013-09-29 06:12:00,56.0,41.0,-100.00,SSW,198,9.0,19.0,58,0.00,,,0.18,0.000000,,2013-09-29 12:12:00,
2013-09-29 06:21:00,56.0,41.0,-100.00,SSW,198,9.0,19.0,58,0.00,,,0.18,0.000000,,2013-09-29 12:21:00,
2013-09-29 06:32:00,56.0,41.0,-100.00,SSW,198,9.0,19.0,58,0.00,,,0.18,0.000000,,2013-09-29 12:32:00,
2013-09-29 06:42:00,58.0,38.0,-100.00,SSW,205,14.0,25.0,48,0.00,,,0.17,0.000000,,2013-09-29 12:42:00,
2013-09-29 07:11:00,58.0,38.0,-100.00,SSW,205,14.0,25.0,48,0.00,,,0.17,0.000000,,2013-09-29 13:11:00,
2013-09-29 07:22:00,58.0,38.0,-100.00,SSW,205,14.0,25.0,48,0.00,,,0.17,0.000000,,2013-09-29 13:22:00,
2013-09-29 07:32:00,58.0,38.0,-100.00,SSW,205,14.0,25.0,48,0.00,,,0.17,0.000000,,2013-09-29 13:32:00,
2013-09-29 07:42:00,58.0,38.0,-100.00,SW,230,10.0,27.0,48,0.00,,,0.17,0.000000,,2013-09-29 13:42:00,
2013-09-29 08:11:00,58.0,38.0,-100.00,SW,230,10.0,27.0,48,0.00,,,0.17,0.000000,,2013-09-29 14:11:00,
2013-09-29 08:21:00,58.0,38.0,-100.00,SW,230,10.0,27.0,48,0.00,,,0.17,0.000000,,2013-09-29 14:21:00,
2013-09-29 08:32:00,58.0,38.0,-100.00,SW,230,10.0,27.0,48,0.00,,,0.17,0.000000,,2013-09-29 14:32:00,
2013-09-29 08:42:00,48.0,40.0,-100.00,NNW,329,12.0,28.0,73,0.00,,,0.15,1.000000,,2013-09-29 14:42:00,
2013-09-29 09:12:00,48.0,40.0,-100.00,NNW,329,12.0,28.0,73,0.00,,,0.15,1.000000,,2013-09-29 15:12:00,
2013-09-29 09:22:00,48.0,40.0,-100.00,NNW,329,12.0,28.0,73,0.00,,,0.15,1.000000,,2013-09-29 15:22:00,
2013-09-29 09:35:00,48.0,40.0,-100.00,NNW,329,12.0,28.0,73,0.00,,,0.15,1.000000,,2013-09-29 15:35:00,
2013-09-29 09:42:00,48.0,40.0,-100.00,NW,322,9.0,27.0,73,0.00,,,0.14,5.000000,,2013-09-29 15:42:00,
2013-09-29 10:13:00,48.0,40.0,-100.00,NW,322,9.0,27.0,73,0.00,,,0.14,5.000000,,2013-09-29 16:13:00,
2013-09-29 10:24:00,48.0,40.0,-100.00,NW,322,9.0,27.0,73,0.00,,,0.14,5.000000,,2013-09-29 16:24:00,
2013-09-29 10:33:00,48.0,40.0,-100.00,NW,322,9.0,27.0,73,0.00,,,0.14,5.000000,,2013-09-29 16:33:00,
2013-09-29 10:42:00,45.0,42.0,-100.00,NNE,21,4.0,20.0,88,0.06,,,0.20,20.000000,,2013-09-29 16:42:00,
2013-09-29 11:12:00,45.0,42.0,-100.00,NNE,21,4.0,20.0,88,0.06,,,0.20,20.000000,,2013-09-29 17:12:00,
2013-09-29 11:23:00,45.0,42.0,-100.00,NNE,21,4.0,20.0,88,0.06,,,0.20,20.000000,,2013-09-29 17:23:00,
2013-09-29 11:34:00,45.0,42.0,-100.00,NNE,21,4.0,20.0,88,0.06,,,0.20,20.000000,,2013-09-29 17:34:00,
2013-09-29 11:42:00,45.0,42.0,-100.00,South,173,2.0,8.0,89,0.01,,,0.21,44.000000,,2013-09-29 17:42:00,
2013-09-29 12:13:00,45.0,42.0,-100.00,South,173,2.0,8.0,89,0.01,,,0.21,44.000000,,2013-09-29 18:13:00,
2013-09-29 12:22:00,45.0,42.0,-100.00,South,173,2.0,8.0,89,0.01,,,0.21,44.000000,,2013-09-29 18:22:00,
2013-09-29 12:32:00,45.0,42.0,-100.00,South,173,2.0,8.0,89,0.01,,,0.21,44.000000,,2013-09-29 18:32:00,
2013-09-29 12:42:00,45.0,44.0,-100.00,South,180,6.0,10.0,95,0.04,,,0.25,54.000000,,2013-09-29 18:42:00,
2013-09-29 13:11:00,45.0,44.0,-100.00,South,180,6.0,10.0,95,0.04,,,0.25,54.000000,,2013-09-29 19:11:00,
2013-09-29 13:21:00,45.0,44.0,-100.00,South,180,6.0,10.0,95,0.04,,,0.25,54.000000,,2013-09-29 19:21:00,
2013-09-29 13:32:00,45.0,44.0,-100.00,South,180,6.0,10.0,95,0.04,,,0.25,54.000000,,2013-09-29 19:32:00,
2013-09-29 13:42:00,44.0,42.0,-100.00,South,186,9.0,18.0,93,0.05,,,0.30,57.000000,,2013-09-29 19:42:00,
2013-09-29 14:12:00,44.0,42.0,-100.00,South,186,9.0,18.0,93,0.05,,,0.30,57.000000,,2013-09-29 20:12:00,
2013-09-29 14:22:00,44.0,42.0,-100.00,South,186,9.0,18.0,93,0.05,,,0.30,57.000000,,2013-09-29 20:22:00,
2013-09-29 14:32:00,44.0,42.0,-100.00,South,186,9.0,18.0,93,0.05,,,0.30,57.000000,,2013-09-29 20:32:00,
2013-09-29 14:42:00,45.0,43.0,-100.00,South,176,7.0,13.0,93,0.08,,,0.37,80.000000,,2013-09-29 20:42:00,
2013-09-29 15:11:00,45.0,43.0,-100.00,South,176,7.0,13.0,93,0.08,,,0.37,80.000000,,2013-09-29 21:11:00,
2013-09-29 15:21:00,45.0,43.0,-100.00,South,176,7.0,13.0,93,0.08,,,0.37,80.000000,,2013-09-29 21:21:00,
2013-09-29 15:34:00,45.0,43.0,-100.00,South,176,7.0,13.0,93,0.08,,,0.37,80.000000,,2013-09-29 21:34:00,
2013-09-29 15:42:00,44.0,42.0,-100.00,SSE,154,4.0,11.0,91,0.03,,,0.40,92.000000,,2013-09-29 21:42:00,
2013-09-29 16:14:00,44.0,42.0,-100.00,SSE,154,4.0,11.0,91,0.03,,,0.40,92.000000,,2013-09-29 22:14:00,
2013-09-29 16:23:00,44.0,42.0,-100.00,SSE,154,4.0,11.0,91,0.03,,,0.40,92.000000,,2013-09-29 22:23:00,
2013-09-29 16:33:00,44.0,42.0,-100.00,SSE,154,4.0,11.0,91,0.03,,,0.40,92.000000,,2013-09-29 22:33:00,
2013-09-29 16:42:00,44.0,42.0,-100.00,West,260,1.0,6.0,93,0.02,,,0.41,71.000000,,2013-09-29 22:42:00,
2013-09-29 17:12:00,44.0,42.0,-100.00,West,260,1.0,6.0,93,0.02,,,0.41,71.000000,,2013-09-29 23:12:00,
2013-09-29 17:23:00,44.0,42.0,-100.00,West,260,1.0,6.0,93,0.02,,,0.41,71.000000,,2013-09-29 23:23:00,
2013-09-29 17:34:00,44.0,42.0,-100.00,West,260,1.0,6.0,93,0.02,,,0.41,71.000000,,2013-09-29 23:34:00,
2013-09-29 17:42:00,43.0,42.0,-100.00,SSW,193,2.0,6.0,95,0.06,,,0.47,33.000000,,2013-09-29 23:42:00,
2013-09-29 18:11:00,43.0,42.0,-100.00,SSW,193,2.0,6.0,95,0.06,,,0.47,33.000000,,2013-09-30 00:11:00,
2013-09-29 18:22:00,43.0,42.0,-100.00,SSW,193,2.0,6.0,95,0.06,,,0.47,33.000000,,2013-09-30 00:22:00,
2013-09-29 18:32:00,43.0,42.0,-100.00,SSW,193,2.0,6.0,95,0.06,,,0.47,33.000000,,2013-09-30 00:32:00,
2013-09-29 18:42:00,43.0,42.0,-100.00,North,10,0.0,5.0,97,0.06,,,0.53,17.000000,,2013-09-30 00:42:00,
2013-09-29 19:11:00,43.0,42.0,-100.00,North,10,0.0,5.0,97,0.06,,,0.53,17.000000,,2013-09-30 01:11:00,
2013-09-29 19:22:00,43.0,42.0,-100.00,North,10,0.0,5.0,97,0.06,,,0.53,17.000000,,2013-09-30 01:22:00,
2013-09-29 19:32:00,43.0,42.0,-100.00,North,10,0.0,5.0,97,0.06,,,0.53,17.000000,,2013-09-30 01:32:00,
2013-09-29 19:42:00,43.0,42.0,-100.00,North,3,2.0,4.0,97,0.05,,,0.58,3.000000,,2013-09-30 01:42:00,
2013-09-29 20:12:00,43.0,42.0,-100.00,North,3,2.0,4.0,97,0.05,,,0.58,3.000000,,2013-09-30 02:12:00,
2013-09-29 20:22:00,43.0,42.0,-100.00,North,3,2.0,4.0,97,0.05,,,0.58,3.000000,,2013-09-30 02:22:00,
2013-09-29 20:32:00,43.0,42.0,-100.00,North,3,2.0,4.0,97,0.05,,,0.58,3.000000,,2013-09-30 02:32:00,
2013-09-29 20:42:00,44.0,43.0,-100.00,East,87,1.0,5.0,95,0.08,,,0.64,0.000000,,2013-09-30 02:42:00,
2013-09-29 21:12:00,44.0,43.0,-100.00,East,87,1.0,5.0,95,0.08,,,0.64,0.000000,,2013-09-30 03:12:00,
2013-09-29 21:22:00,44.0,43.0,-100.00,East,87,1.0,5.0,95,0.08,,,0.64,0.000000,,2013-09-30 03:22:00,
2013-09-29 21:34:00,44.0,43.0,-100.00,East,87,1.0,5.0,95,0.08,,,0.64,0.000000,,2013-09-30 03:34:00,
2013-09-29 21:42:00,43.0,42.0,-100.00,SSW,204,0.0,5.0,98,0.05,,,0.64,0.000000,,2013-09-30 03:42:00,
2013-09-29 22:14:00,43.0,42.0,-100.00,SSW,204,0.0,5.0,98,0.05,,,0.64,0.000000,,2013-09-30 04:14:00,
2013-09-29 22:24:00,43.0,42.0,-100.00,SSW,204,0.0,5.0,98,0.05,,,0.64,0.000000,,2013-09-30 04:24:00,
2013-09-29 22:33:00,43.0,42.0,-100.00,SSW,204,0.0,5.0,98,0.05,,,0.64,0.000000,,2013-09-30 04:33:00,
2013-09-29 22:42:00,43.0,42.0,-100.00,North,7,2.0,5.0,96,0.09,,,0.72,0.000000,,2013-09-30 04:42:00,
2013-09-29 23:12:00,43.0,42.0,-100.00,North,7,2.0,5.0,96,0.09,,,0.72,0.000000,,2013-09-30 05:12:00,
2013-09-29 23:23:00,43.0,42.0,-100.00,North,7,2.0,5.0,96,0.09,,,0.72,0.000000,,2013-09-30 05:23:00,
2013-09-29 23:33:00,43.0,42.0,-100.00,North,7,2.0,5.0,96,0.09,,,0.72,0.000000,,2013-09-30 05:33:00,
2013-09-29 23:42:00,43.0,42.0,-100.00,ENE,73,1.0,9.0,97,0.07,,,0.79,0.000000,,2013-09-30 05:42:00,